Home   Weather   Caen   Past weeks

Flag for France Past Weather in Caen, Lower Normandy, France — Yesterday and Last 2 Weeks

Now
34 °F

Clear.


Feels Like: 27 °F
Forecast: 45 / 55 °F
Wind: 8 mph from South

Location: Caen Airport

Current Time: Feb 25, 2017 at 3:25:22 am

Latest Report: Feb 25, 2017 at 2:30 am


Visibility: 10 mi

Pressure: 30.15 "Hg

Humidity: 93%

Dew Point: 32 °F

Location of CaenLocation

Past Weather in Caen — Graph

°F

Caen Temperature Yesterday

Maximum temperature yesterday: 48 °F (at 1:00 pm)
Minimum temperature yesterday: 36 °F (at 9:00 pm)
Average temperature yesterday: 42 °F

High & Low Weather Summary for the Past Weeks

 TemperatureHumidityPressure
High55 °F (Feb 15, 2:00 pm)100% (Feb 11, 11:30 pm)30.48 "Hg (Feb 11, 11:30 pm)
Low30 °F (Feb 11, 11:00 pm)55% (Feb 18, 4:00 pm)29.59 "Hg (Feb 23, 11:00 am)
Average44 °F86%30.16 "Hg
* Reported Feb 10 2:00 am — Feb 25 2:00 am, Caen, Weather by CustomWeather, © 2017

Note: Actual official high and low records may vary slightly from our data, if they occured in-between our weather recording intervals... More about our weather records

Advertising

Caen Weather History for the Previous 24 Hours

Scroll right to see more
 ConditionsComfort  
Time TempWeatherWind HumidityBarometerVisibility
2:00 am
Sat, Feb 25
34 °FClear.8 mph93%30.15 "Hg10 mi
1:30 am36 °FClear.8 mph87%30.18 "Hg10 mi
1:00 am36 °FClear.8 mph87%30.18 "Hg10 mi
12:30 am34 °FPassing clouds.5 mph93%30.18 "HgN/A
12:00 am34 °FClear.6 mph93%30.18 "Hg10 mi
11:30 pm
Fri, Feb 24
36 °FClear.7 mph87%30.18 "Hg10 mi
11:00 pm36 °FClear.8 mph93%30.18 "Hg10 mi
10:30 pm36 °FClear.8 mph93%30.18 "Hg10 mi
10:00 pm36 °FClear.8 mph93%30.18 "Hg10 mi
9:30 pm36 °FClear.7 mph93%30.18 "Hg10 mi
9:00 pm36 °FClear.6 mph93%30.18 "Hg10 mi
8:30 pm37 °FClear.5 mph87%30.18 "Hg10 mi
8:00 pm39 °FClear.No wind87%30.18 "Hg10 mi
7:30 pm41 °FClear.1 mph76%30.15 "Hg10 mi
7:00 pm41 °FClear.3 mph81%30.15 "Hg10 mi
6:30 pm43 °FSunny.5 mph76%30.15 "Hg10 mi
6:00 pm46 °FScattered clouds.8 mph66%30.12 "HgN/A
5:30 pm46 °FSunny.9 mph66%30.12 "Hg10 mi
5:00 pm46 °FPassing clouds.9 mph66%30.12 "HgN/A
4:30 pm46 °FPassing clouds.10 mph62%30.12 "HgN/A
4:00 pm46 °FScattered clouds.13 mph62%30.12 "HgN/A
3:30 pm48 °FScattered clouds.15 mph62%30.12 "HgN/A
3:00 pm48 °FPartly sunny.15 mph62%30.12 "HgN/A
2:30 pm48 °FPassing clouds.16 mph62%30.09 "HgN/A
2:00 pm48 °FScattered clouds.15 mph62%30.09 "HgN/A
1:30 pm48 °FPassing clouds.17 mph62%30.09 "HgN/A
1:00 pm48 °FBroken clouds.17 mph66%30.09 "HgN/A
12:30 pm46 °FBroken clouds.17 mph66%30.09 "HgN/A
12:00 pm46 °FBroken clouds.16 mph66%30.09 "HgN/A
11:30 am46 °FBroken clouds.16 mph66%30.09 "HgN/A
11:00 am46 °FPartly sunny.18 mph66%30.07 "HgN/A
10:30 am45 °FPartly sunny.14 mph76%30.07 "HgN/A
10:00 am43 °FScattered clouds.12 mph76%30.07 "HgN/A
9:30 am41 °FScattered clouds.12 mph76%30.07 "HgN/A
9:00 am39 °FBroken clouds.10 mph81%30.04 "HgN/A
8:30 am39 °FScattered clouds.12 mph81%30.04 "HgN/A
8:00 am39 °FScattered clouds.10 mph75%30.01 "HgN/A
7:30 am39 °FPartly cloudy.10 mph75%30.01 "HgN/A
7:00 am39 °FPassing clouds.12 mph75%30.01 "HgN/A
6:30 am39 °FPartly cloudy.12 mph75%29.98 "HgN/A
6:00 am39 °FPassing clouds.12 mph81%29.98 "HgN/A
5:30 am39 °FPassing clouds.10 mph81%29.98 "HgN/A
5:00 am39 °FPartly cloudy.10 mph81%29.95 "HgN/A
4:30 am41 °FPassing clouds.10 mph76%29.95 "HgN/A
4:00 am41 °FPassing clouds.12 mph76%29.95 "HgN/A
3:30 am41 °FPassing clouds.12 mph81%29.95 "HgN/A
3:00 am41 °FPassing clouds.12 mph81%29.92 "HgN/A
Weather by CustomWeather, © 2017

See weather overviewHow to use our weather pages